Weather History for KFFA - February, 2014

Change the Weather History Date:

Wednesday, February 5, 2014

  Actual Average (KMQI) Record (KMQI)
Temperature  
Mean Temperature 53 °F -  
Max Temperature 64 °F 49 °F 71 °F (2008)
Min Temperature 42 °F 36 °F 17 °F (1970)
Degree Days  
Heating Degree Days 12    
Growing Degree Days 3 (Base 50)    
Moisture  
Dew Point 51 °F    
Average Humidity 99    
Maximum Humidity 100    
Minimum Humidity 97    
Precipitation  
Precipitation 0.39 in - - ()
Sea Level Pressure  
Sea Level Pressure 29.88 in    
Wind  
Wind Speed 6 mph (WSW)    
Max Wind Speed 16 mph    
Max Gust Speed 25 mph    
Visibility 4 miles    
Events Fog , Rain    
Averages and records for this station are not official NWS values.
T = Trace of Precipitation, MM = Missing Value Source: NWS Daily Summary

Daily Weather History Graph

Daily Weather History Graph

Search for Another Location

Airport or City:

Trip Planner

Search our weather history database for the weather conditions in past years. The results will help you decide how hot, cold, wet, or windy it might be!

Date:

Astronomy

Feb. 05, 2014 Rise Set
Actual Time 7:00 AM EST 5:33 PM EST
Civil Twilight 6:33 AM EST 6:00 PM EST
Nautical Twilight 6:02 AM EST 6:31 PM EST
Astronomical Twilight 5:32 AM EST 7:01 PM EST
Moon 10:26 AM EST No Moon Set
Length of Visible Light 11h 27m
Length of Day
10h 33m
Waxing Crescent, 39% of the Moon is Illuminated
Feb 5
Waxing Crescent
Feb 6
First Quarter
Feb 14
Full
Feb 22
Last Quarter
Mar 1
New

Hourly Weather History & Observations

Time (EST) Temp. Windchill Dew Point Humidity Pressure Visibility Wind Dir Wind Speed Gust Speed Precip Events Conditions
12:15 AM 47.5 °F - 47.1 °F 99% 30.04 in 0.5 mi East 3.5 mph - 0.01 in Rain Rain
12:35 AM 49.3 °F - 48.9 °F 99% 30.03 in 0.8 mi SE 4.6 mph - 0.01 in   Light Drizzle
12:55 AM 53.2 °F - 52.9 °F 99% 30.01 in 1.2 mi SSE 8.1 mph - 0.02 in   Drizzle
1:15 AM 55.6 °F - 55.2 °F 99% 30.00 in 1.0 mi South 6.9 mph - 0.01 in   Drizzle
1:35 AM 54.7 °F - 54.5 °F 99% 29.99 in 0.8 mi South 4.6 mph - 0.02 in   Drizzle
1:55 AM 55.4 °F - 55.0 °F 99% 29.98 in 0.5 mi SSE 6.9 mph - 0.02 in   Drizzle
2:15 AM 57.7 °F - 57.6 °F 99% 29.97 in 1.8 mi SW 8.1 mph - 0.03 in Rain Light Rain
2:35 AM 55.0 °F - 54.9 °F 99% 29.96 in 1.5 mi Calm Calm - 0.10 in Rain Rain
2:55 AM 54.1 °F - 53.8 °F 99% 29.94 in 0.8 mi South 4.6 mph - 0.16 in Rain Rain
3:15 AM 51.8 °F - 51.6 °F 99% 29.96 in 1.2 mi WNW 5.8 mph 19.6 mph 0.05 in Rain Light Rain
3:35 AM 45.3 °F - 45.1 °F 99% 29.94 in 7.0 mi Calm Calm - 0.05 in Rain Light Rain
3:55 AM 46.8 °F - 46.6 °F 99% 29.94 in 3.0 mi SW 4.6 mph - 0.05 in   Overcast
4:15 AM 48.6 °F - 48.4 °F 99% 29.93 in 0.2 mi SW 4.6 mph - N/A Fog Fog
4:35 AM 48.9 °F - 48.7 °F 99% 29.93 in 0.2 mi SW 4.6 mph - N/A Fog Fog
4:55 AM 49.6 °F - 49.6 °F 100% 29.92 in 0.2 mi SW 5.8 mph - N/A Fog Fog
5:15 AM 50.7 °F - 50.7 °F 100% 29.91 in 0.5 mi SW 5.8 mph - N/A Fog Fog
5:35 AM 51.4 °F - 51.3 °F 99% 29.91 in 0.5 mi WSW 8.1 mph - N/A Fog Fog
5:55 AM 51.1 °F - 50.9 °F 99% 29.92 in 0.5 mi West 6.9 mph - N/A Fog Fog
6:15 AM 45.0 °F 41.2 °F 45.0 °F 100% 29.92 in 0.2 mi West 6.9 mph - N/A Fog Fog
6:35 AM 42.6 °F 39.0 °F 42.4 °F 99% 29.92 in 0.2 mi West 5.8 mph - N/A Fog Fog
6:55 AM 43.5 °F 40.9 °F 43.2 °F 99% 29.91 in 0.2 mi West 4.6 mph - N/A Fog Fog
7:15 AM 44.6 °F 43.1 °F 44.4 °F 99% 29.91 in 0.2 mi West 3.5 mph - N/A Fog Fog
7:35 AM 44.4 °F - 44.2 °F 99% 29.90 in 0.2 mi Calm Calm - N/A Fog Fog
7:55 AM 43.2 °F - 43.0 °F 99% 29.90 in 0.2 mi Calm Calm - N/A Fog Fog
8:15 AM 44.8 °F 42.4 °F 44.6 °F 99% 29.90 in 0.2 mi WSW 4.6 mph - N/A Fog Fog
8:35 AM 46.0 °F - 45.9 °F 99% 29.90 in 0.2 mi Calm Calm - N/A   Light Drizzle
8:55 AM 46.4 °F - 46.2 °F 99% 29.89 in 0.2 mi Calm Calm - 0.04 in Rain Light Rain
9:15 AM 45.7 °F 42.0 °F 45.5 °F 99% 29.90 in 0.5 mi WNW 6.9 mph 18.4 mph 0.05 in Rain Heavy Rain
9:35 AM 43.0 °F 38.8 °F 43.0 °F 100% 29.90 in 1.2 mi West 6.9 mph 18.4 mph 0.05 in   Overcast
9:55 AM 42.8 °F 41.1 °F 42.6 °F 99% 29.90 in 1.5 mi WNW 3.5 mph - 0.05 in   Overcast
10:15 AM 42.8 °F 40.1 °F 42.4 °F 99% 29.88 in 0.8 mi WSW 4.6 mph - 0.04 in Rain Light Rain
10:35 AM 44.4 °F 42.0 °F 44.2 °F 99% 29.86 in 0.5 mi SW 4.6 mph - 0.04 in   Light Drizzle
10:55 AM 48.0 °F - 47.8 °F 99% 29.85 in 0.5 mi SW 4.6 mph - 0.04 in Fog Fog
11:15 AM 51.3 °F - 50.9 °F 99% 29.83 in 0.5 mi SSW 8.1 mph - N/A Fog Fog
11:35 AM 55.8 °F - 55.4 °F 99% 29.81 in 0.8 mi SW 11.5 mph 24.2 mph N/A   Overcast
11:55 AM 61.0 °F - 60.6 °F 99% 29.79 in 7.0 mi SW 13.8 mph 21.9 mph N/A   Overcast
12:15 PM 61.7 °F - 61.2 °F 98% 29.77 in 7.0 mi SW 12.7 mph 23.0 mph N/A   Overcast
12:35 PM 61.7 °F - 61.3 °F 99% 29.76 in 5.0 mi SW 13.8 mph 23.0 mph N/A   Drizzle
12:55 PM 62.1 °F - 61.7 °F 99% 29.75 in 7.0 mi SW 15.0 mph 23.0 mph N/A   Overcast
1:15 PM 62.8 °F - 62.4 °F 99% 29.74 in 7.0 mi SW 16.1 mph 25.3 mph N/A   Drizzle
1:35 PM 63.1 °F - 62.8 °F 99% 29.72 in 10.0 mi SW 15.0 mph 24.2 mph N/A   Overcast
1:55 PM 63.0 °F - 62.8 °F 99% 29.71 in 7.0 mi SW 13.8 mph 21.9 mph 0.01 in   Light Drizzle
2:15 PM 63.7 °F - 63.5 °F 99% 29.71 in 10.0 mi SW 13.8 mph 21.9 mph N/A   Overcast
2:35 PM 64.4 °F - 64.2 °F 99% 29.71 in 10.0 mi WSW 11.5 mph 23.0 mph N/A   Overcast
2:55 PM 63.3 °F - 62.8 °F 98% 29.72 in 5.0 mi West 12.7 mph 20.7 mph N/A Rain Rain
3:15 PM 60.6 °F - 60.1 °F 98% 29.73 in 10.0 mi West 12.7 mph 20.7 mph N/A   Overcast
3:35 PM 56.5 °F - 55.8 °F 97% 29.74 in 0.8 mi West 9.2 mph 17.3 mph N/A   Overcast
3:55 PM 52.5 °F - 52.2 °F 99% 29.75 in 0.8 mi West 12.7 mph 23.0 mph N/A   Overcast
4:15 PM 53.2 °F - 52.9 °F 99% 29.76 in 1.2 mi West 9.2 mph 16.1 mph N/A   Overcast
4:35 PM 52.9 °F - 52.5 °F 99% 29.76 in 2.0 mi West 10.4 mph - N/A   Overcast
4:55 PM 53.8 °F - 53.6 °F 99% 29.77 in 7.0 mi West 8.1 mph 18.4 mph N/A   Overcast
5:15 PM 53.2 °F - 52.9 °F 99% 29.78 in 7.0 mi West 9.2 mph - N/A   Overcast
5:35 PM 52.0 °F - 51.8 °F 99% 29.79 in 4.0 mi West 6.9 mph 17.3 mph N/A   Overcast
5:55 PM 50.5 °F - 50.4 °F 99% 29.81 in 0.5 mi West 6.9 mph - N/A Fog Fog
6:15 PM 50.0 °F - 49.6 °F 99% 29.82 in 2.5 mi West 6.9 mph - N/A   Overcast
6:35 PM 49.8 °F - 49.6 °F 99% 29.83 in 7.0 mi West 10.4 mph - N/A   Overcast
6:55 PM 50.0 °F - 49.8 °F 99% 29.84 in 4.0 mi West 6.9 mph - N/A   Mostly Cloudy
7:15 PM 48.9 °F - 48.7 °F 99% 29.86 in 4.0 mi West 6.9 mph - N/A   Mostly Cloudy
7:35 PM 48.7 °F - 48.6 °F 99% 29.87 in 7.0 mi West 5.8 mph - N/A   Overcast
7:55 PM 49.5 °F - 49.3 °F 99% 29.88 in 10.0 mi WNW 8.1 mph - N/A   Overcast
8:15 PM 50.0 °F - 49.8 °F 99% 29.89 in 10.0 mi WNW 9.2 mph - N/A   Overcast
8:35 PM 49.6 °F - 49.3 °F 99% 29.90 in 10.0 mi WNW 8.1 mph - N/A   Mostly Cloudy
8:55 PM 48.6 °F - 48.0 °F 98% 29.91 in 10.0 mi WNW 3.5 mph - N/A   Clear
9:15 PM 48.2 °F - 47.7 °F 98% 29.92 in 10.0 mi West 4.6 mph - N/A   Clear
9:35 PM 47.8 °F - 47.3 °F 98% 29.93 in 10.0 mi West 5.8 mph - N/A   Clear
9:55 PM 47.5 °F - 47.1 °F 99% 29.94 in 10.0 mi West 4.6 mph - N/A   Clear
10:15 PM 47.5 °F - 46.9 °F 98% 29.94 in 10.0 mi WNW 5.8 mph - N/A   Clear
10:35 PM 47.3 °F - 46.8 °F 98% 29.95 in 7.0 mi WNW 5.8 mph - N/A   Clear
10:55 PM 47.1 °F - 46.6 °F 98% 29.96 in 10.0 mi WNW 4.6 mph - N/A   Clear
11:15 PM 46.9 °F - 46.4 °F 98% 29.97 in 7.0 mi WNW 5.8 mph - N/A   Clear
11:35 PM 46.4 °F 44.3 °F 45.9 °F 98% 29.98 in 5.0 mi WNW 4.6 mph - N/A   Scattered Clouds
11:55 PM 45.9 °F 42.3 °F 45.3 °F 98% 29.99 in 7.0 mi WNW 6.9 mph - N/A   Clear